Shirley, NY

7:48 AM EDT on June 28, 2017 (GMT -0400)
Brookhaven

Weather History for KHWV - April, 2013

Change the Weather History Date:

Tuesday, April 9, 2013

  Actual Average (KISP) Record (KISP)
Temperature  
Mean Temperature 64 °F -  
Max Temperature 82 °F 54 °F 82 °F (2013)
Min Temperature 48 °F 37 °F 28 °F (1990)
Growing Degree Days 14 (Base 50)    
Moisture  
Dew Point 44 °F    
Average Humidity 57    
Maximum Humidity 93    
Minimum Humidity 22    
Precipitation  
Precipitation 0.00 in - - ()
Sea Level Pressure  
Sea Level Pressure 29.96 in    
Wind  
Wind Speed 8 mph (WSW)    
Max Wind Speed 23 mph    
Max Gust Speed 36 mph    
Visibility 9 miles    
Events      
Averages and records for this station are not official NWS values.
T = Trace of Precipitation, MM = Missing Value Source: NWS Daily Summary

Daily Weather History Graph

Daily Weather History Graph

Search for Another Location

Airport or City:

Trip Planner

Search our weather history database for the weather conditions in past years. The results will help you decide how hot, cold, wet, or windy it might be!

Date:

Astronomy

Apr. 09, 2013 Rise Set
Actual Time 6:21 AM EDT 7:24 PM EDT
Civil Twilight 5:53 AM EDT 7:53 PM EDT
Nautical Twilight 5:20 AM EDT 8:26 PM EDT
Astronomical Twilight 4:45 AM EDT 9:01 PM EDT
Moon 5:42 AM EDT (4/9) 6:57 PM EDT (4/9)
Length of Visible Light 13h 59m
Length of Day
13h 03m
Waning Crescent, 1% of the Moon is Illuminated
Apr 9
Waning Crescent
Apr 10
New
Apr 18
First Quarter
Apr 25
Full
May 2
Last Quarter

Hourly Weather History & Observations

Time (EDT) Temp. Dew Point Humidity Pressure Visibility Wind Dir Wind Speed Gust Speed Precip Events Conditions
12:56 AM 48.9 °F 45.0 °F 86% 30.04 in 7.0 mi SSE 6.9 mph - N/A   Clear
1:56 AM 48.0 °F 46.0 °F 93% 30.01 in 7.0 mi SSE 8.1 mph - N/A   Clear
2:56 AM 48.9 °F 46.0 °F 90% 29.98 in 7.0 mi SSE 5.8 mph - N/A   Partly Cloudy
3:56 AM 50.0 °F 46.9 °F 89% 29.96 in 8.0 mi South 6.9 mph - N/A   Mostly Cloudy
4:56 AM 50.0 °F 46.9 °F 89% 29.95 in 8.0 mi SSW 8.1 mph - N/A   Scattered Clouds
5:56 AM 50.0 °F 46.9 °F 89% 29.95 in 8.0 mi SW 8.1 mph - N/A   Partly Cloudy
6:56 AM 50.0 °F 46.9 °F 89% 29.96 in 6.0 mi SW 5.8 mph - N/A   Clear
7:56 AM 52.0 °F 48.0 °F 86% 29.96 in 7.0 mi SW 6.9 mph - N/A   Clear
8:56 AM 55.9 °F 48.9 °F 77% 29.95 in 8.0 mi South 6.9 mph - N/A   Clear
9:56 AM 64.9 °F 51.1 °F 61% 29.95 in 10.0 mi SW 8.1 mph - N/A   Clear
10:56 AM 68.0 °F 50.0 °F 52% 29.94 in 10.0 mi South 8.1 mph - N/A   Clear
11:30 AM 77.0 °F 46.4 °F 34% 29.93 in 10.0 mi WNW 20.7 mph 28.8 mph N/A   Clear
11:56 AM 78.1 °F 45.0 °F 31% 29.93 in 10.0 mi WNW 17.3 mph 28.8 mph N/A   Clear
12:56 PM 79.0 °F 44.1 °F 29% 29.93 in 10.0 mi WNW 19.6 mph 31.1 mph N/A   Clear
1:56 PM 81.0 °F 42.1 °F 25% 29.93 in 10.0 mi WNW 17.3 mph 28.8 mph N/A   Clear
2:56 PM 81.0 °F 41.0 °F 24% 29.93 in 10.0 mi NW 23.0 mph 35.7 mph N/A   Clear
3:56 PM 80.1 °F 39.0 °F 23% 29.93 in 10.0 mi WNW 15.0 mph 24.2 mph N/A   Clear
4:56 PM 80.1 °F 37.9 °F 22% 29.93 in 10.0 mi NNW 12.7 mph 19.6 mph N/A   Clear
5:56 PM 77.0 °F 37.0 °F 24% 29.95 in 10.0 mi NNW 8.1 mph - N/A   Clear
6:56 PM 73.9 °F 36.0 °F 25% 29.96 in 10.0 mi NNW 4.6 mph - N/A   Clear
7:56 PM 66.0 °F 39.0 °F 37% 29.97 in 10.0 mi Calm Calm - N/A   Clear
8:56 PM 60.1 °F 39.0 °F 46% 29.99 in 10.0 mi Calm Calm - N/A   Clear
9:56 PM 55.9 °F 44.1 °F 64% 30.00 in 10.0 mi South 3.5 mph - N/A   Clear
10:56 PM 53.1 °F 43.0 °F 69% 29.99 in 10.0 mi Calm Calm - N/A   Clear
11:56 PM 52.0 °F 43.0 °F 71% 29.94 in 10.0 mi Calm Calm - N/A   Clear